Weather in Al-Qusayr

Egypt     26°06′43″N   34°16′16″E
temp.,
°C
wind,
m/s
gust,
m/s
humid.,
%
clouds,
%
prec.,
mm/h
press.,
hPa
HPBL,
m
19 june, sat
sat1923:00+27wsw11450 0.0 100911
02:00+25n12474 0.0 100835
05:00+24n35550 0.0 1009113
08:00+28n44340 0.0 1010454
11:00+33nne75273 0.0 1009741
14:00+32nne65300 0.0 1007552
17:00+32n67240 0.0 1007454
20:00+29wnw22270 0.0 100813
20 june, sun
sun2023:00+27sw11290 0.0 100811
02:00+26nw12270 0.0 100812
05:00+24nnw23400 0.0 100943
08:00+30n56270 0.0 1009515
11:00+34nne66200 0.0 10081173
14:00+34nne65210 0.0 1007610
17:00+33nne45200 0.0 1007442
20:00+28sw11240 0.0 100811
21 june, mon
mon2123:00+29wsw22220 0.0 100811
02:00+29wnw33220 0.0 100714
05:00+27wnw33280 0.0 100820
08:00+31n46290 0.0 1009495
11:00+34nne55230 0.0 1009671
14:00+35ene55210 0.0 1007462
17:00+33e22220 0.0 1007325
20:00+30s11230 0.0 100711
22 june, tue
tue2223:00+30w22210 0.0 100711
02:00+29nnw44260 0.0 100734
05:00+26nnw23420 0.0 100836
08:00+31n68320 0.0 1009466
11:00+35n76270 0.0 1008701
14:00+34nne66290 0.0 1006433
17:00+34nne33270 0.0 1007371
20:00+29nw22350 0.0 100814
23 june, wed
wed2323:00+30nw22280 0.0 100812
02:00+29nw33270 0.0 100716
05:00+27nw59400 0.0 1008153
08:00+33n67300 0.0 1009586
11:00+32nne76380 0.0 1009501
14:00+35n65290 0.0 1007641
17:00+34n55290 0.0 1007457
20:00+30nw33350 0.0 100827